Terminal Aerodrome Forecast
Issued by NWS Columbia, SC

Home | Current Version | Previous Version | Text Only | Print | Product List | Glossary On
Versions: 1 2 3 4 5 6 7 8 9 10 11 12 13 14 15 16 17 18 19 20 21 22 23 24 25 26 27 28 29 30 31 32 33 34 35 36 37 38 39 40 41 42
000
FTUS42 KCAE 191554 AAB
TAFAGS
TAF AMD
KAGS 191554Z 1916/2012 12003KT P6SM OVC007
     FM191800 13006KT P6SM OVC015
     FM192100 15006KT P6SM SCT015
     FM200600 VRB03KT 1/2SM FG VV003=

USA.gov is the U.S. government's official web portal to all federal, state and local government web resources and services.